TimeMST,TemperatureF,Dew PointF,Humidity,Sea Level PressureIn,VisibilityMPH,Wind Direction,Wind SpeedMPH,Gust SpeedMPH,PrecipitationIn,Events,Conditions,WindDirDegrees,DateUTC
12:53 AM,15.1,12.0,88,29.99,10.0,West,8.1,-,N/A,,Clear,270,2013-02-12 07:53:00
1:53 AM,16.0,12.0,84,29.99,10.0,WSW,6.9,-,N/A,,Clear,250,2013-02-12 08:53:00
2:53 AM,14.0,10.9,88,30.00,10.0,Calm,Calm,-,N/A,,Clear,0,2013-02-12 09:53:00
3:53 AM,17.1,12.9,84,30.00,10.0,WSW,4.6,-,N/A,,Overcast,250,2013-02-12 10:53:00
4:53 AM,17.1,14.0,88,30.01,10.0,WNW,5.8,-,N/A,,Overcast,290,2013-02-12 11:53:00
5:53 AM,17.1,14.0,88,30.02,10.0,WNW,5.8,-,N/A,,Mostly Cloudy,300,2013-02-12 12:53:00
6:53 AM,18.0,15.1,88,30.03,10.0,West,6.9,-,N/A,,Overcast,260,2013-02-12 13:53:00
7:53 AM,19.9,16.0,85,30.03,10.0,WNW,8.1,-,N/A,,Mostly Cloudy,290,2013-02-12 14:53:00
8:53 AM,21.9,17.1,82,30.04,10.0,WNW,4.6,-,N/A,,Overcast,290,2013-02-12 15:53:00
9:53 AM,26.1,19.0,75,30.04,10.0,WNW,5.8,-,N/A,,Overcast,300,2013-02-12 16:53:00
10:53 AM,28.9,19.9,69,30.04,10.0,West,5.8,-,N/A,,Clear,260,2013-02-12 17:53:00
11:53 AM,32.0,21.9,66,30.03,10.0,West,6.9,-,N/A,,Mostly Cloudy,270,2013-02-12 18:53:00
12:53 PM,36.0,24.1,62,29.99,10.0,West,8.1,-,N/A,,Clear,270,2013-02-12 19:53:00
1:53 PM,36.0,25.0,64,29.97,10.0,West,12.7,-,N/A,,Clear,260,2013-02-12 20:53:00
2:53 PM,35.1,26.1,70,29.96,10.0,WSW,11.5,-,N/A,,Clear,250,2013-02-12 21:53:00
3:53 PM,35.1,27.0,72,29.96,10.0,West,8.1,-,N/A,,Clear,270,2013-02-12 22:53:00
4:53 PM,35.1,25.0,67,29.96,10.0,WNW,9.2,-,N/A,,Mostly Cloudy,290,2013-02-12 23:53:00
5:53 PM,33.1,26.1,75,29.96,10.0,West,4.6,-,N/A,,Overcast,280,2013-02-13 00:53:00
6:53 PM,30.0,25.0,82,29.91,10.0,South,4.6,-,N/A,,Clear,180,2013-02-13 01:53:00
7:53 PM,28.0,24.1,85,29.91,10.0,SSW,6.9,-,N/A,,Clear,200,2013-02-13 02:53:00
8:53 PM,25.0,21.9,88,29.87,10.0,SE,6.9,-,N/A,,Clear,130,2013-02-13 03:53:00
9:53 PM,25.0,21.9,88,29.84,10.0,SE,5.8,-,N/A,,Clear,130,2013-02-13 04:53:00
10:53 PM,26.1,23.0,88,29.81,10.0,SSE,4.6,-,N/A,,Clear,150,2013-02-13 05:53:00
11:53 PM,30.0,24.1,79,29.78,10.0,West,5.8,-,N/A,,Clear,270,2013-02-13 06:53:00